Preview of NWS' New Version of Forecast
This preview is not operational and should not be used for support decisions.

Regional Weather Roundup (RWR)

Issued by National Weather Service (NWS)

                            
000
ASUS43 KDTX 192210
RWRMI 
MICHIGAN HOURLY REGIONAL WEATHER ROUNDUP
NATIONAL WEATHER SERVICE DETROIT/PONTIAC MI
600 PM EDT SUN MAY 19 2019

NOTE: "FAIR" INDICATES FEW OR NO CLOUDS BELOW 12,000 FEET WITH NO
SIGNIFICANT WEATHER AND/OR OBSTRUCTION TO VISIBILITY.

MIZ047>049-052>055-059>063-066>070-074>076-081>083-192300-
SOUTHEAST LOWER MICHIGAN
  
CITY           SKY/WX    TMP DP  RH WIND       PRES   REMARKS
ADRIAN         FAIR      66  60  81 SW15G24   29.71F                  
ALMA           CLOUDY    70  63  79 S10       29.58F                  
ANN ARBOR      FAIR      65  63  93 S12       29.69F                  
BAD AXE        LGT RAIN  64  59  81 S12G21    29.64F                  
CARO           LGT RAIN  62  57  85 S7        29.60F                  
DETROIT CITY   LGT RAIN  64  61  90 SE6       29.74F                  
DETROIT        LGT RAIN  65  61  87 SE10      29.71F                  
FLINT          FAIR      65  58  78 S12       29.64F                  
GROSSE ILE     LGT RAIN  60  59  96 S14G20    29.73F                  
HILLSDALE      PTSUNNY   65  58  77 S14G26    29.70R                  
HOWELL         FAIR      64  58  80 S12G20    29.66R                  

CITY           SKY/WX    TMP DP  RH WIND       PRES   REMARKS
JACKSON        PTSUNNY   68  59  73 S21G32    29.67S                  
LAMBERTVILLE   LGT RAIN  64  62  94 S9        29.74F                  
LANSING        FAIR      69  59  70 S18G30    29.62S                  
LAPEER         LGT RAIN  63  60  88 S8        29.67F                  
MASON          FAIR      69  59  71 S14G26    29.64F                  
MONROE         LGT RAIN  65  64  97 S12       29.73F                  
MT. CLEMENS    LGT RAIN  63  63 100 SE8       29.73S                  
PONTIAC        LGT RAIN  62  60  93 S9        29.67F                  
PORT HOPE        N/A     66  62  87 S8        29.63F                  
PORT HURON     LGT RAIN  64  59  82 S7        29.75F                  
TRI CITIES     PTSUNNY   68  62  81 S13       29.59F                  
MIDLAND        PTSUNNY   64  62  91 SE5       29.58F                  
TROY           LGT RAIN  63  59  89 SE7       29.72F                  
SAGINAW HB     PTSUNNY   66  61  82 S10       29.60S                  
$$
MIZ043>046-050>051-056>058-064>065-071>073-077>080-192300-
SOUTHWEST LOWER MICHIGAN
  
CITY           SKY/WX    TMP DP  RH WIND       PRES   REMARKS
BATTLE CREEK   PTSUNNY   69  61  75 S16G25    29.62F                  
BENTON HARBOR  FAIR      70  56  61 W16G28    29.61S                  
BIG RAPIDS     HVY RAIN  61  58  89 W14G30    29.55S                  
COLDWATER      CLOUDY    67  62  81 S10G20    29.67S                  
FREMONT        CLOUDY    63  58  81 SW13G25   29.56S                  
HOLLAND        PTSUNNY   68  58  70 W24G38    29.59R                  
GRAND RAPIDS   PTSUNNY   63  56  78 S15G28    29.60R                  
IONIA          CLOUDY    70  59  68 S14G20    29.58F                  
KALAMAZOO      TSTM      63  59  87 S26G51    29.63R SQUALL  VSB 1/2  
LUDINGTON      FAIR      63  55  75 SW17G23   29.53R                  
MARSHALL       CLOUDY    69  64  83 S14G24    29.64F                  
MOUNT PLEASANT CLOUDY    69  66  90 S8        29.56F                  
MUSKEGON       PTSUNNY   63  54  72 SW13G23   29.58F                  
SOUTH HAVEN    FAIR      68  58  71 SW13G18   29.61R                  
$$
MIZ016>042-192300-
NORTHERN LOWER MICHIGAN
  
CITY           SKY/WX    TMP DP  RH WIND       PRES   REMARKS
ALPENA         CLOUDY    45  44  97 E10       29.60F                  
BEAVER ISLAND  LGT RAIN  43  43  99 E9G18     29.57R                  
BELLAIRE       LGT RAIN  65  59  82 CALM      29.52F                  
CADILLAC       LGT RAIN  63  61  94 SW9G18    29.54R                  
CHARLEVOIX     CLOUDY    51  49  93 E15       29.55F                  
FRANKFORT      CLOUDY    53  49  87 S7        29.53F FOG              
GAYLORD        CLOUDY    48  48 100 NE6       29.57F FOG              
GRAYLING         N/A     60  60  97 S9        29.54F                  
HARBOR SPRINGS CLOUDY    46  45  96 E14G21    29.58S                  
HOUGHTON LAKE  PTSUNNY   62  60  93 SE8       29.56F                  
MANISTEE       CLOUDY    64  55  72 W12       29.52F                  
OSCODA         LGT RAIN  46  46 100 E6        29.60F                  
PELLSTON       CLOUDY    46  46 100 SE8       29.60F                  
ROGERS CITY    CLOUDY    44  43  97 E7        29.62F FOG              
TRAVERSE CITY  LGT RAIN  66  59  78 SW9G21    29.50S                  
$$
MIZ007>008-015-192300-
EASTERN UPPER MICHIGAN
  
CITY           SKY/WX    TMP DP  RH WIND       PRES   REMARKS
KINROSS        RAIN      45  44  97 E16       29.62F                  
MACKINAC ISLAN MIX PCPN  44  44 100 E14G30    29.59F                  
NEWBERRY       RAIN      44  42  91 NE8       29.62R                  
S. S. MARIE    LGT RAIN  47  43  86 E10G22    29.62F                  
MUNISING         N/A     39  38  96 N20       29.67S WCI  29          
$$
MIZ004>006-011>014-085-192300-
CENTRAL UPPER MICHIGAN
  
CITY           SKY/WX    TMP DP  RH WIND       PRES   REMARKS
MANISTIQUE     LGT RAIN  46  43  90 NE8       29.60F                  
ESCANABA       LGT RAIN  43  41  93 N8        29.60F                  
MENOMINEE      CLOUDY    47  44  90 NE15G25   29.57F                  
SAWYER-GWINN   LGT RAIN  39  37  93 NE24G31   29.68R VSB 1   WCI  28  
$$
MIZ001>003-009>011-084-192300-
WESTERN UPPER MICHIGAN
  
CITY           SKY/WX    TMP DP  RH WIND       PRES   REMARKS
IRON MOUNTAIN  CLOUDY    41  38  89 N13G25    29.61F                  
HOUGHTON       LGT RAIN  40  35  83 NE20G30   29.78F WCI  30          
COPPER HARBOR    N/A     40  36  86 NE14      29.82F WCI  32          
IRONWOOD       MIX PCPN  34  33  96 NE13G20   29.82R FOG     WCI  25  
$$

ABBREVIATIONS USED IN REMARKS
   TC - TEMPERATURE IN CELSIUS
  WCI - WIND CHILL INDEX
   HX - HEAT INDEX
  VSB - VISIBILITY